Weather History for Ozark, AL

Change the Weather History Date:

Thursday, October 13, 2011

  Actual Average Record
Temperature  
Mean Temperature 70 °F -  
Max Temperature 82 °F 76 °F 87 °F (1997)
Min Temperature 59 °F 54 °F 42 °F (2000)
Cooling Degree Days 6    
Growing Degree Days 20 (Base 50)    
Moisture  
Dew Point 61 °F    
Average Humidity 92    
Maximum Humidity 100    
Minimum Humidity 45    
Precipitation  
Precipitation 0.02 in - - ()
Sea Level Pressure  
Sea Level Pressure 29.78 in    
Wind  
Wind Speed 3 mph (SW)    
Max Wind Speed 16 mph    
Max Gust Speed 22 mph    
Visibility 4 miles    
Events Fog    
Averages and records for this station are not official NWS values.
T = Trace of Precipitation, MM = Missing Value Source: NWS Daily Summary

Daily Weather History Graph

Daily Weather History Graph

Search for Another Location

Airport:

Trip Planner

Search our weather history database for the weather conditions in past years. The results will help you decide how hot, cold, wet, or windy it might be!

Date:

Astronomy

Oct. 13, 2011 Rise Set
Actual Time 6:44 AM CDT 6:13 PM CDT
Civil Twilight 6:19 AM CDT 6:37 PM CDT
Nautical Twilight 5:51 AM CDT 7:06 PM CDT
Astronomical Twilight 5:23 AM CDT 7:34 PM CDT
Moon 6:59 PM CDT (10/13) 8:05 AM CDT (10/13)
Length of Visible Light 12h 18m
Length of Day
11h 29m
Full, 98% of the Moon is Illuminated
Oct 13
Full
Oct 19
Last Quarter
Oct 26
New
Nov 2
First Quarter
Nov 10
Full

Hourly Weather History & Observations

Time (CDT) Temp. Heat Index Dew Point Humidity Pressure Visibility Wind Dir Wind Speed Gust Speed Precip Events Conditions
12:23 AM 60.8 °F - 60.8 °F 100% 29.82 in 0.8 mi Calm Calm - N/A   Clear
12:55 AM 61.9 °F - 61.3 °F 98% 29.81 in 0.5 mi Calm Calm - N/A Fog Fog
1:33 AM 60.8 °F - 60.8 °F 100% 29.80 in 0.2 mi Calm Calm - N/A Fog Fog
1:43 AM 60.8 °F - 60.8 °F 100% 29.80 in 0.2 mi Calm Calm - N/A Fog Fog
1:53 AM 60.8 °F - 60.8 °F 100% 29.79 in 0.5 mi Calm Calm - N/A Fog Fog
1:55 AM 60.8 °F - 60.3 °F 98% 29.79 in 0.5 mi Calm Calm - N/A Fog Fog
2:02 AM 60.8 °F - 60.8 °F 100% 29.79 in 0.2 mi Calm Calm - N/A Fog Fog
2:08 AM 60.8 °F - 60.8 °F 100% 29.79 in 0.2 mi Calm Calm - N/A Fog Fog
2:42 AM 60.8 °F - 60.8 °F 100% 29.78 in 0.2 mi South 3.5 mph - N/A Fog Fog
2:44 AM 60.8 °F - 60.8 °F 100% 29.78 in 0.5 mi South 3.5 mph - N/A Fog Fog
2:55 AM 60.6 °F - 60.1 °F 98% 29.78 in 0.2 mi Calm Calm - N/A Fog Fog
3:04 AM 60.8 °F - 59.0 °F 94% 29.78 in 0.2 mi Calm Calm - N/A Fog Fog
3:18 AM 60.8 °F - 60.8 °F 100% 29.78 in 0.2 mi SSW 4.6 mph - N/A Fog Fog
3:32 AM 60.8 °F - 60.8 °F 100% 29.78 in 0.5 mi SSW 4.6 mph - N/A Fog Fog
3:38 AM 60.8 °F - 60.8 °F 100% 29.78 in 0.2 mi SSW 3.5 mph - N/A Fog Fog
3:55 AM 61.5 °F - 61.3 °F 99% 29.78 in 0.2 mi SW 5.8 mph - N/A Fog Fog
3:56 AM 60.8 °F - 60.8 °F 100% 29.78 in 0.5 mi SW 5.8 mph - N/A Fog Fog
4:00 AM 60.8 °F - 60.8 °F 100% 29.78 in 0.8 mi SW 4.6 mph - N/A   Clear
4:02 AM 60.8 °F - 60.8 °F 100% 29.78 in 1.0 mi SW 4.6 mph - N/A   Clear
4:03 AM 60.8 °F - 60.8 °F 100% 29.78 in 1.2 mi SSW 4.6 mph - N/A   Clear
4:05 AM 60.8 °F - 60.8 °F 100% 29.78 in 1.5 mi SSW 4.6 mph - N/A   Clear
4:07 AM 60.8 °F - 60.8 °F 100% 29.78 in 2.0 mi SW 4.6 mph - N/A   Clear
4:14 AM 60.8 °F - 60.8 °F 100% 29.78 in 3.0 mi SW 4.6 mph - N/A   Scattered Clouds
4:18 AM 60.8 °F - 60.8 °F 100% 29.78 in 2.5 mi Calm Calm - N/A   Scattered Clouds
4:23 AM 60.8 °F - 60.8 °F 100% 29.78 in 3.0 mi SSW 3.5 mph - N/A   Mostly Cloudy
4:55 AM 62.2 °F - 61.9 °F 99% 29.77 in 10.0 mi South 5.8 mph - N/A   Mostly Cloudy
5:22 AM 60.8 °F - 60.8 °F 100% 29.77 in 2.5 mi SW 3.5 mph - N/A   Clear
5:23 AM 60.8 °F - 60.8 °F 100% 29.77 in 1.8 mi SW 3.5 mph - N/A   Clear
5:25 AM 60.8 °F - 60.8 °F 100% 29.77 in 1.2 mi SW 3.5 mph - N/A   Clear
5:26 AM 60.8 °F - 60.8 °F 100% 29.77 in 1.0 mi WSW 3.5 mph - N/A   Clear
5:28 AM 60.8 °F - 60.8 °F 100% 29.77 in 0.8 mi WSW 3.5 mph - N/A   Clear
5:32 AM 60.8 °F - 60.8 °F 100% 29.77 in 0.5 mi WSW 3.5 mph - N/A Fog Fog
5:33 AM 60.8 °F - 60.8 °F 100% 29.77 in 0.8 mi WSW 3.5 mph - N/A   Clear
5:37 AM 60.8 °F - 60.8 °F 100% 29.77 in 1.0 mi WSW 3.5 mph - N/A   Clear
5:39 AM 60.8 °F - 60.8 °F 100% 29.77 in 1.5 mi WSW 3.5 mph - N/A   Clear
5:41 AM 60.8 °F - 60.8 °F 100% 29.77 in 2.5 mi WSW 3.5 mph - N/A   Clear
5:42 AM 60.8 °F - 60.8 °F 100% 29.77 in 3.0 mi WSW 3.5 mph - N/A   Clear
5:55 AM 61.0 °F - 60.6 °F 99% 29.78 in 8.0 mi Calm Calm - N/A   Scattered Clouds
6:45 AM 60.8 °F - 60.8 °F 100% 29.78 in 2.5 mi Calm Calm - N/A   Clear
6:46 AM 60.8 °F - 60.8 °F 100% 29.78 in 1.8 mi Calm Calm - N/A   Clear
6:47 AM 60.8 °F - 59.0 °F 94% 29.78 in 1.2 mi Calm Calm - N/A   Clear
6:48 AM 60.8 °F - 59.0 °F 94% 29.78 in 1.0 mi Calm Calm - N/A   Clear
6:49 AM 60.8 °F - 59.0 °F 94% 29.78 in 0.8 mi Calm Calm - N/A   Clear
6:55 AM 59.5 °F - 59.2 °F 99% 29.78 in 3.0 mi SSW 3.5 mph - N/A   Clear
7:55 AM 63.0 °F - 62.4 °F 98% 29.79 in 10.0 mi South 5.8 mph - N/A   Clear
7:57 AM 62.6 °F - 62.6 °F 100% 29.79 in 8.0 mi South 5.8 mph - N/A   Partly Cloudy
8:08 AM 62.6 °F - 62.6 °F 100% 29.79 in 2.5 mi South 5.8 mph - N/A   Scattered Clouds
8:09 AM 62.6 °F - 62.6 °F 100% 29.79 in 2.0 mi South 4.6 mph - N/A   Mostly Cloudy
8:14 AM 62.6 °F - 62.6 °F 100% 29.79 in 2.0 mi South 4.6 mph - N/A   Mostly Cloudy
8:27 AM 64.4 °F - 62.6 °F 94% 29.78 in 6.0 mi South 5.8 mph - N/A   Scattered Clouds
8:53 AM 66.2 °F - 64.4 °F 94% 29.80 in 10.0 mi WSW 4.6 mph - N/A   Partly Cloudy
8:55 AM 65.7 °F - 64.9 °F 98% 29.80 in 10.0 mi WSW 5.8 mph - N/A   Clear
9:12 AM 66.2 °F - 66.2 °F 100% 29.80 in 10.0 mi SW 5.8 mph - N/A   Mostly Cloudy
9:55 AM 69.1 °F - 68.5 °F 98% 29.79 in 10.0 mi West 8.1 mph - N/A   Mostly Cloudy
9:58 AM 69.8 °F - 69.8 °F 100% 29.79 in 10.0 mi West 6.9 mph - N/A   Scattered Clouds
10:55 AM 75.9 °F - 64.9 °F 69% 29.78 in 10.0 mi WSW 9.2 mph - N/A   Clear
11:55 AM 77.4 °F - 64.2 °F 64% 29.77 in 10.0 mi West 8.1 mph - N/A   Scattered Clouds
12:55 PM 79.2 °F - 64.0 °F 60% 29.73 in 10.0 mi WSW 9.2 mph - N/A   Partly Cloudy
2:55 PM 81.9 °F 83.2 °F 63.9 °F 54% 29.66 in 10.0 mi SW 16.1 mph 21.9 mph N/A   Clear
3:55 PM 82.2 °F 83.0 °F 61.7 °F 50% 29.67 in 10.0 mi West 11.5 mph 20.7 mph 0.02 in   Clear
4:55 PM 80.6 °F 80.8 °F 57.7 °F 45% 29.68 in 10.0 mi NW 8.1 mph - N/A   Scattered Clouds
5:55 PM 75.4 °F - 61.5 °F 62% 29.69 in 10.0 mi WNW 6.9 mph - N/A   Clear
6:55 PM 72.0 °F - 60.1 °F 66% 29.71 in 10.0 mi NW 6.9 mph - N/A   Clear
7:55 PM 70.5 °F - 59.4 °F 68% 29.75 in 10.0 mi NW 9.2 mph - N/A   Clear
8:55 PM 68.7 °F - 58.5 °F 70% 29.78 in 10.0 mi NW 8.1 mph - N/A   Clear
9:55 PM 66.9 °F - 58.3 °F 74% 29.80 in 10.0 mi NW 5.8 mph - N/A   Clear
10:55 PM 66.0 °F - 58.1 °F 76% 29.81 in 10.0 mi NW 8.1 mph - N/A   Clear
11:55 PM 64.0 °F - 58.3 °F 82% 29.82 in 10.0 mi WNW 5.8 mph - N/A   Clear